Location: Unspecified
(54.1780°N, 0.0000°E)
Time: 23:14:07
(UTC+00:00)

Explorer 7 - Pass Details

Date: 24 June 2019
Orbit: 485 x 680 km, 50.3° (Epoch: 13 October)

Event Time Altitude Azimuth Distance (km) Brightness Sun altitude
Rises 13:48:46 0° 278° (W) 2,937 10.8 53.4°
Reaches altitude 10° 13:51:32 10° 262° (W) 2,056 10.3 53.1°
Maximum altitude 13:55:01 21° 215° (SW) 1,503 10.2 52.7°
Drops below altitude 10° 13:58:35 10° 168° (SSE) 2,102 10.2 52.3°
Sets 14:01:27 0° 152° (SSE) 3,024 10.7 52.0°
